contact:dominique.lefevre@mio.osupytheas.fr, maurice.libes@osupytheas.fr, didier.mallarino@osupytheas.fr
Project:EMSO http://www.emso-fr.org/EMSO-France
Depth: 2436.0 m
Title:EMSO Ligure Ouest : Data MII capteur AQUADOPP
Date,Latitude,Longitude,X_East,Y_North,Z_Up,Amplitude_X,Amplitude_Y,Amplitude_Z,Batterie,SoundSpeed,Heading,Pitch,Roll,Pressure,TIS,Speed,Direction
, degrees North, degrees East, m.s-1, m.s-1,m.s-1, 1, 1, 1, Volt, m.s-1, degree, degree, degree, dbar, degree_C, m.s-1, degree
2021-01-30T00:04:03,42.805,6.029,-0.041,0.002,-0.047,108.0,110.0,103.0,13.4,1505.3,326.5,-0.7,1.8,2470.327,13.31,0.041,272.8
2021-01-30T00:07:03,42.805,6.029,-0.015,0.017,0.049,107.0,111.0,103.0,13.4,1505.3,327.0,-0.7,1.8,2470.33,13.31,0.022,318.6
2021-01-30T00:10:03,42.805,6.029,-0.031,0.019,-0.001,108.0,109.0,103.0,13.4,1505.3,328.2,-0.7,1.8,2470.334,13.32,0.036,301.5
2021-01-30T00:13:03,42.805,6.029,-0.044,-0.015,-0.031,108.0,112.0,104.0,13.4,1505.3,323.2,-0.8,1.8,2470.331,13.32,0.046,251.2
2021-01-30T00:16:03,42.805,6.029,-0.026,0.001,-0.033,109.0,111.0,104.0,13.4,1505.3,328.0,-0.7,1.8,2470.302,13.33,0.026,272.2
2021-01-30T00:19:03,42.805,6.029,-0.01,-0.002,0.009,109.0,110.0,103.0,13.4,1505.3,326.5,-0.7,1.8,2470.309,13.33,0.01,258.7
2021-01-30T00:22:03,42.805,6.029,-0.037,0.001,-0.008,108.0,112.0,104.0,13.3,1505.3,327.5,-0.7,1.8,2470.28,13.33,0.037,271.5
2021-01-30T00:25:03,42.805,6.029,-0.029,0.008,0.03,109.0,111.0,104.0,13.3,1505.3,327.1,-0.7,1.9,2470.264,13.33,0.03,285.4
2021-01-30T00:28:03,42.805,6.029,-0.021,0.001,0.005,108.0,112.0,104.0,13.4,1505.3,326.3,-0.7,1.8,2470.306,13.33,0.021,272.7
2021-01-30T00:31:04,42.805,6.029,-0.015,-0.001,0.007,109.0,110.0,104.0,13.3,1505.3,324.0,-0.7,1.8,2470.306,13.33,0.015,266.2
2021-01-30T00:34:03,42.805,6.029,-0.036,-0.012,0.029,109.0,110.0,104.0,13.4,1505.3,324.3,-0.7,1.8,2470.313,13.33,0.037,251.6
2021-01-30T00:37:03,42.805,6.029,-0.028,0.005,0.033,108.0,110.0,104.0,13.4,1505.3,326.9,-0.7,1.8,2470.264,13.33,0.028,280.1
2021-01-30T00:40:03,42.805,6.029,-0.015,0.004,-0.021,108.0,112.0,104.0,13.3,1505.3,327.7,-0.7,1.8,2470.295,13.33,0.015,284.9
2021-01-30T00:43:03,42.805,6.029,-0.029,0.003,-0.043,107.0,111.0,104.0,13.3,1505.3,324.0,-0.7,1.8,2470.287,13.33,0.029,275.9
2021-01-30T00:46:03,42.805,6.029,-0.035,0.0,0.037,108.0,110.0,104.0,13.4,1505.3,322.8,-0.7,1.8,2470.266,13.33,0.035,270.0
2021-01-30T00:49:03,42.805,6.029,-0.033,-0.02,0.018,108.0,109.0,104.0,13.4,1505.3,323.3,-0.7,1.8,2470.253,13.33,0.038,238.8
2021-01-30T00:52:03,42.805,6.029,-0.035,0.009,0.026,108.0,110.0,104.0,13.4,1505.3,322.8,-0.7,1.8,2470.265,13.33,0.036,284.4
2021-01-30T00:55:03,42.805,6.029,-0.022,0.01,0.03,109.0,112.0,104.0,13.4,1505.3,327.5,-0.7,1.8,2470.241,13.33,0.024,294.4
2021-01-30T00:58:03,42.805,6.029,-0.025,-0.007,-0.009,108.0,110.0,104.0,13.3,1505.3,326.9,-0.7,1.8,2470.223,13.33,0.025,254.4
2021-01-30T01:04:03,42.805,6.029,-0.026,0.0,-0.013,109.0,111.0,104.0,13.4,1505.3,327.9,-0.8,1.8,2470.357,13.31,0.026,270.0
2021-01-30T01:07:03,42.805,6.029,-0.011,0.02,0.01,107.0,109.0,103.0,13.4,1505.3,327.7,-0.7,1.8,2470.286,13.32,0.022,331.2
2021-01-30T01:10:03,42.805,6.029,-0.026,0.014,0.001,108.0,110.0,104.0,13.4,1505.3,324.2,-0.7,1.8,2470.315,13.32,0.029,298.3
2021-01-30T01:13:03,42.805,6.029,-0.018,-0.004,0.0,108.0,109.0,105.0,13.3,1505.3,324.7,-0.7,1.8,2470.278,13.33,0.018,257.5
2021-01-30T01:16:03,42.805,6.029,0.0,0.0,0.002,107.0,110.0,103.0,13.3,1505.3,327.6,-0.7,1.8,2470.27,13.33,0.0,0.0
2021-01-30T01:19:03,42.805,6.029,-0.005,0.006,0.022,108.0,109.0,104.0,13.4,1505.3,324.5,-0.7,1.8,2470.28,13.33,0.007,320.2
2021-01-30T01:22:02,42.805,6.029,-0.024,0.015,-0.011,107.0,111.0,104.0,13.4,1505.3,326.3,-0.7,1.9,2470.297,13.33,0.028,302.0
2021-01-30T01:25:03,42.805,6.029,-0.037,-0.008,0.0,108.0,111.0,102.0,13.3,1505.3,322.9,-0.7,1.9,2470.313,13.33,0.037,257.8
2021-01-30T01:28:03,42.805,6.029,-0.012,0.027,0.025,108.0,111.0,104.0,13.4,1505.3,323.1,-0.7,1.8,2470.276,13.33,0.029,336.0
2021-01-30T01:31:03,42.805,6.029,-0.055,0.019,-0.029,107.0,111.0,105.0,13.4,1505.3,326.4,-0.7,1.8,2470.277,13.33,0.058,289.1
2021-01-30T01:34:03,42.805,6.029,-0.011,-0.001,-0.003,107.0,110.0,105.0,13.4,1505.3,327.5,-0.7,1.8,2470.244,13.33,0.011,264.8
2021-01-30T01:37:03,42.805,6.029,-0.049,0.0,-0.02,109.0,109.0,104.0,13.4,1505.3,323.1,-0.7,1.8,2470.28,13.33,0.049,270.0
2021-01-30T01:40:03,42.805,6.029,0.033,0.0,0.039,107.0,111.0,104.0,13.3,1505.3,326.4,-0.7,1.8,2470.288,13.33,0.033,90.0
2021-01-30T01:43:03,42.805,6.029,0.003,0.013,0.045,108.0,112.0,103.0,13.4,1505.3,324.4,-0.7,1.8,2470.282,13.33,0.013,13.0
2021-01-30T01:46:03,42.805,6.029,-0.012,0.009,-0.004,108.0,111.0,104.0,13.4,1505.3,325.9,-0.7,1.8,2470.262,13.33,0.015,306.9
2021-01-30T01:49:03,42.805,6.029,-0.041,-0.011,-0.01,107.0,112.0,104.0,13.4,1505.3,326.3,-0.7,1.8,2470.219,13.33,0.042,255.0
2021-01-30T01:52:03,42.805,6.029,-0.022,0.0,-0.018,108.0,110.0,104.0,13.4,1505.4,325.3,-0.7,1.8,2470.244,13.34,0.022,270.0
2021-01-30T01:55:03,42.805,6.029,-0.051,0.007,-0.012,107.0,110.0,104.0,13.4,1505.3,327.7,-0.7,1.8,2470.26,13.33,0.051,277.8
2021-01-30T01:58:03,42.805,6.029,-0.025,0.005,-0.013,108.0,110.0,105.0,13.4,1505.3,323.2,-0.7,1.8,2470.243,13.33,0.025,281.3
2021-01-30T02:04:03,42.805,6.029,-0.009,-0.005,0.0,106.0,112.0,104.0,13.4,1505.3,324.0,-0.7,1.8,2470.276,13.31,0.01,240.9
2021-01-30T02:07:03,42.805,6.029,-0.015,0.015,0.031,108.0,112.0,104.0,13.4,1505.3,327.2,-0.7,1.8,2470.3,13.32,0.021,315.0
2021-01-30T02:10:03,42.805,6.029,0.0,0.011,0.004,107.0,112.0,103.0,13.4,1505.3,324.8,-0.7,1.8,2470.287,13.33,0.011,0.0
2021-01-30T02:13:03,42.805,6.029,0.006,0.009,0.008,108.0,111.0,104.0,13.4,1505.3,323.0,-0.7,1.8,2470.265,13.33,0.01,33.7
2021-01-30T02:16:03,42.805,6.029,0.016,0.005,0.029,107.0,111.0,102.0,13.3,1505.3,323.2,-0.7,1.8,2470.26,13.33,0.016,72.6
2021-01-30T02:19:03,42.805,6.029,-0.027,0.001,0.026,108.0,110.0,104.0,13.4,1505.3,323.3,-0.7,1.8,2470.28,13.33,0.027,272.1
2021-01-30T02:22:03,42.805,6.029,-0.001,-0.011,0.0,107.0,111.0,103.0,13.4,1505.3,325.3,-0.7,1.9,2470.25,13.33,0.011,185.2
2021-01-30T02:25:03,42.805,6.029,0.018,-0.006,0.012,108.0,109.0,103.0,13.4,1505.4,324.9,-0.7,1.8,2470.253,13.34,0.018,108.4
2021-01-30T02:28:03,42.805,6.029,0.003,-0.004,0.003,108.0,110.0,104.0,13.4,1505.4,323.1,-0.7,1.8,2470.257,13.34,0.005,143.1
2021-01-30T02:31:03,42.805,6.029,0.012,-0.006,0.011,108.0,108.0,104.0,13.4,1505.4,326.1,-0.7,1.8,2470.236,13.34,0.013,116.6
2021-01-30T02:34:03,42.805,6.029,-0.001,-0.009,0.007,107.0,109.0,105.0,13.4,1505.4,325.2,-0.7,1.8,2470.263,13.34,0.009,186.3
2021-01-30T02:37:03,42.805,6.029,0.005,-0.018,0.003,108.0,108.0,105.0,13.4,1505.4,323.1,-0.7,1.8,2470.225,13.34,0.018,164.5
2021-01-30T02:40:03,42.805,6.029,0.003,-0.018,0.001,107.0,110.0,104.0,13.4,1505.4,325.4,-0.7,1.8,2470.262,13.34,0.018,170.5
2021-01-30T02:43:03,42.805,6.029,-0.008,0.009,-0.006,108.0,109.0,104.0,13.3,1505.4,325.9,-0.7,1.8,2470.239,13.34,0.012,318.4
2021-01-30T02:46:03,42.805,6.029,-0.015,0.002,-0.01,107.0,112.0,104.0,13.4,1505.4,323.2,-0.7,1.9,2470.257,13.34,0.015,277.6
2021-01-30T02:49:03,42.805,6.029,-0.034,0.007,-0.004,108.0,109.0,105.0,13.4,1505.4,324.5,-0.7,1.8,2470.214,13.34,0.034,281.6
2021-01-30T02:52:03,42.805,6.029,0.007,0.0,-0.016,107.0,110.0,103.0,13.4,1505.4,326.0,-0.7,1.8,2470.266,13.34,0.007,90.0
2021-01-30T02:55:03,42.805,6.029,-0.001,0.0,0.02,107.0,109.0,104.0,13.4,1505.4,328.3,-0.7,1.8,2470.285,13.34,0.001,270.0
2021-01-30T02:58:03,42.805,6.029,-0.011,-0.011,-0.005,108.0,111.0,103.0,13.4,1505.4,323.0,-0.7,1.8,2470.234,13.34,0.015,225.0
2021-01-30T03:04:03,42.805,6.029,-0.001,0.018,0.055,107.0,109.0,105.0,13.4,1505.3,324.4,-0.7,1.8,2470.282,13.32,0.018,356.8
2021-01-30T03:07:03,42.805,6.029,-0.014,-0.016,0.01,107.0,110.0,103.0,13.4,1505.3,325.7,-0.7,1.8,2470.252,13.33,0.021,221.2
2021-01-30T03:10:03,42.805,6.029,-0.032,0.002,0.007,108.0,111.0,105.0,13.4,1505.3,324.8,-0.7,1.9,2470.259,13.33,0.032,273.6
2021-01-30T03:13:03,42.805,6.029,-0.02,-0.007,-0.022,108.0,110.0,104.0,13.3,1505.3,324.2,-0.7,1.8,2470.263,13.33,0.021,250.7
2021-01-30T03:16:03,42.805,6.029,-0.042,0.0,-0.028,109.0,109.0,103.0,13.3,1505.4,327.5,-0.7,1.8,2470.265,13.34,0.042,270.0
2021-01-30T03:19:03,42.805,6.029,-0.015,0.0,-0.009,107.0,112.0,104.0,13.4,1505.4,326.0,-0.7,1.8,2470.271,13.34,0.015,270.0
2021-01-30T03:22:03,42.805,6.029,-0.004,0.012,0.0,108.0,111.0,104.0,13.4,1505.4,325.2,-0.7,1.8,2470.29,13.34,0.012,341.6
2021-01-30T03:25:03,42.805,6.029,0.0,-0.002,-0.009,106.0,111.0,104.0,13.3,1505.4,323.5,-0.7,1.8,2470.24,13.34,0.002,180.0
2021-01-30T03:28:03,42.805,6.029,-0.008,-0.001,0.0,109.0,110.0,104.0,13.4,1505.4,324.0,-0.7,1.8,2470.27,13.34,0.008,262.9
2021-01-30T03:31:03,42.805,6.029,-0.015,-0.031,-0.044,108.0,110.0,105.0,13.4,1505.4,323.2,-0.7,1.8,2470.246,13.34,0.034,205.8
2021-01-30T03:34:03,42.805,6.029,-0.003,-0.015,-0.002,107.0,110.0,104.0,13.3,1505.4,328.0,-0.7,1.8,2470.269,13.34,0.015,191.3
2021-01-30T03:37:03,42.805,6.029,-0.013,0.0,-0.024,108.0,110.0,104.0,13.3,1505.4,326.6,-0.7,1.8,2470.314,13.34,0.013,270.0
2021-01-30T03:40:03,42.805,6.029,-0.029,-0.018,-0.01,107.0,110.0,104.0,13.4,1505.4,326.6,-0.7,1.8,2470.261,13.34,0.034,238.2
2021-01-30T03:43:03,42.805,6.029,-0.018,-0.011,0.0,107.0,110.0,103.0,13.4,1505.4,323.5,-0.7,1.8,2470.237,13.34,0.021,238.6
2021-01-30T03:46:03,42.805,6.029,-0.007,-0.009,-0.001,107.0,109.0,103.0,13.4,1505.4,323.0,-0.7,1.9,2470.26,13.34,0.011,217.9
2021-01-30T03:49:03,42.805,6.029,-0.001,0.0,0.017,108.0,110.0,105.0,13.4,1505.4,324.9,-0.7,1.8,2470.266,13.34,0.001,270.0
2021-01-30T03:52:03,42.805,6.029,0.0,0.006,0.032,107.0,110.0,102.0,13.3,1505.4,325.2,-0.7,1.8,2470.306,13.34,0.006,0.0
2021-01-30T03:55:03,42.805,6.029,-0.012,-0.024,-0.002,108.0,110.0,104.0,13.3,1505.4,328.3,-0.7,1.8,2470.273,13.34,0.026,206.6
2021-01-30T03:58:03,42.805,6.029,-0.011,-0.006,0.002,108.0,111.0,104.0,13.4,1505.4,325.9,-0.7,1.8,2470.3,13.34,0.012,241.4
2021-01-30T04:04:03,42.805,6.029,0.012,-0.014,-0.064,108.0,109.0,103.0,13.4,1505.3,323.2,-0.7,1.8,2470.277,13.33,0.018,139.4
2021-01-30T04:07:03,42.805,6.029,-0.015,0.016,0.012,109.0,110.0,103.0,13.3,1505.3,323.7,-0.7,1.8,2470.289,13.33,0.021,316.9
2021-01-30T04:10:03,42.805,6.029,0.01,-0.017,0.01,108.0,110.0,104.0,13.4,1505.3,327.2,-0.7,1.8,2470.302,13.33,0.019,149.5
2021-01-30T04:13:03,42.805,6.029,0.002,-0.011,-0.008,108.0,111.0,103.0,13.4,1505.4,327.5,-0.7,1.8,2470.29,13.34,0.011,169.7
2021-01-30T04:16:03,42.805,6.029,0.017,-0.008,0.03,108.0,109.0,104.0,13.3,1505.4,323.0,-0.7,1.9,2470.309,13.34,0.018,115.2
2021-01-30T04:19:03,42.805,6.029,0.015,-0.006,0.001,108.0,110.0,105.0,13.3,1505.4,323.3,-0.7,1.8,2470.3,13.34,0.016,111.8
2021-01-30T04:22:03,42.805,6.029,0.007,0.011,0.006,107.0,110.0,103.0,13.4,1505.4,328.1,-0.7,1.8,2470.353,13.34,0.013,32.5
2021-01-30T04:25:03,42.805,6.029,-0.002,0.011,0.029,109.0,110.0,103.0,13.4,1505.4,325.4,-0.7,1.8,2470.297,13.34,0.011,349.7
2021-01-30T04:28:03,42.805,6.029,0.0,-0.012,-0.021,107.0,109.0,104.0,13.4,1505.4,323.7,-0.7,1.8,2470.323,13.34,0.012,180.0
2021-01-30T04:31:03,42.805,6.029,0.002,-0.012,-0.001,108.0,109.0,104.0,13.4,1505.4,326.4,-0.7,1.9,2470.342,13.34,0.012,170.5
2021-01-30T04:34:03,42.805,6.029,0.005,-0.009,0.008,106.0,110.0,104.0,13.4,1505.4,324.6,-0.7,1.8,2470.332,13.34,0.01,150.9
2021-01-30T04:37:03,42.805,6.029,0.01,-0.006,-0.009,108.0,109.0,104.0,13.4,1505.4,325.4,-0.7,1.8,2470.328,13.34,0.011,121.0
2021-01-30T04:40:03,42.805,6.029,0.024,0.003,0.005,110.0,110.0,102.0,13.4,1505.4,324.8,-0.7,1.8,2470.357,13.34,0.024,82.9
2021-01-30T04:43:03,42.805,6.029,0.012,-0.009,0.019,106.0,110.0,104.0,13.4,1505.4,324.0,-0.7,1.8,2470.299,13.34,0.015,126.9
2021-01-30T04:46:03,42.805,6.029,0.002,0.0,0.033,107.0,108.0,104.0,13.4,1505.4,326.1,-0.8,1.8,2470.309,13.34,0.002,90.0
2021-01-30T04:49:03,42.805,6.029,0.002,-0.02,0.002,106.0,110.0,104.0,13.4,1505.4,326.1,-0.7,1.8,2470.348,13.34,0.02,174.3
2021-01-30T04:52:03,42.805,6.029,0.018,0.0,0.01,108.0,111.0,103.0,13.4,1505.4,324.4,-0.7,1.9,2470.325,13.34,0.018,90.0
2021-01-30T04:55:03,42.805,6.029,0.01,-0.008,-0.017,106.0,110.0,104.0,13.4,1505.4,324.6,-0.7,1.9,2470.361,13.34,0.012,128.7
2021-01-30T04:58:03,42.805,6.029,0.01,-0.03,-0.02,107.0,109.0,104.0,13.4,1505.4,325.9,-0.7,1.8,2470.296,13.34,0.031,161.6
2021-01-30T05:04:03,42.805,6.029,0.021,-0.026,0.013,108.0,108.0,104.0,13.4,1505.3,326.1,-0.8,1.8,2470.385,13.32,0.033,141.1
2021-01-30T05:07:03,42.805,6.029,0.008,-0.001,-0.008,108.0,110.0,104.0,13.3,1505.3,325.3,-0.7,1.8,2470.357,13.33,0.008,97.1
2021-01-30T05:10:03,42.805,6.029,-0.014,0.021,-0.017,107.0,108.0,103.0,13.4,1505.3,327.9,-0.7,1.8,2470.352,13.33,0.025,326.3
2021-01-30T05:13:03,42.805,6.029,-0.004,-0.002,0.015,108.0,109.0,103.0,13.4,1505.4,325.1,-0.7,1.8,2470.343,13.34,0.004,243.4
2021-01-30T05:16:03,42.805,6.029,0.012,-0.019,-0.027,108.0,109.0,104.0,13.4,1505.4,324.9,-0.7,1.8,2470.362,13.34,0.022,147.7
2021-01-30T05:19:03,42.805,6.029,-0.017,0.009,0.021,107.0,109.0,103.0,13.4,1505.4,323.7,-0.7,1.8,2470.393,13.34,0.019,297.9
2021-01-30T05:22:03,42.805,6.029,-0.012,-0.005,-0.024,108.0,108.0,104.0,13.3,1505.4,326.7,-0.7,1.8,2470.336,13.34,0.013,247.4
2021-01-30T05:25:03,42.805,6.029,0.015,-0.02,0.035,107.0,110.0,103.0,13.4,1505.4,327.4,-0.7,1.8,2470.391,13.34,0.025,143.1
2021-01-30T05:28:03,42.805,6.029,0.001,-0.013,0.007,108.0,110.0,103.0,13.4,1505.4,325.7,-0.7,1.8,2470.31,13.34,0.013,175.6
2021-01-30T05:31:03,42.805,6.029,-0.012,-0.011,0.021,107.0,108.0,105.0,13.4,1505.4,326.5,-0.7,1.8,2470.385,13.34,0.016,227.5
2021-01-30T05:34:03,42.805,6.029,0.005,0.0,0.032,107.0,108.0,103.0,13.4,1505.4,326.2,-0.7,1.8,2470.398,13.34,0.005,90.0
2021-01-30T05:37:03,42.805,6.029,0.005,0.0,-0.017,107.0,107.0,103.0,13.4,1505.4,323.6,-0.7,1.8,2470.388,13.34,0.005,90.0
2021-01-30T05:40:03,42.805,6.029,-0.023,-0.009,0.016,108.0,109.0,102.0,13.4,1505.4,326.9,-0.7,1.8,2470.381,13.34,0.024,248.6
2021-01-30T05:43:03,42.805,6.029,-0.005,-0.007,-0.046,108.0,108.0,104.0,13.4,1505.4,324.5,-0.7,1.8,2470.413,13.34,0.008,215.5
2021-01-30T05:46:03,42.805,6.029,0.001,0.01,0.017,107.0,107.0,102.0,13.3,1505.4,327.5,-0.7,1.8,2470.434,13.34,0.01,5.7
2021-01-30T05:49:03,42.805,6.029,-0.009,-0.013,-0.026,108.0,108.0,104.0,13.4,1505.4,322.8,-0.7,1.8,2470.374,13.34,0.015,214.7
2021-01-30T05:52:03,42.805,6.029,0.008,-0.023,0.012,107.0,109.0,103.0,13.4,1505.4,327.1,-0.7,1.8,2470.407,13.34,0.024,160.8
2021-01-30T05:55:03,42.805,6.029,-0.042,-0.01,0.0,107.0,109.0,104.0,13.4,1505.3,324.6,-0.7,1.8,2470.377,13.33,0.043,256.6
2021-01-30T05:58:03,42.805,6.029,-0.016,-0.017,-0.02,107.0,108.0,102.0,13.4,1505.3,325.5,-0.7,1.8,2470.437,13.33,0.023,223.3
2021-01-30T06:04:03,42.805,6.029,-0.005,-0.024,-0.025,107.0,107.0,106.0,13.3,1505.3,322.4,-0.7,1.8,2470.451,13.31,0.024,191.8
2021-01-30T06:07:03,42.805,6.029,-0.004,-0.007,0.008,108.0,109.0,103.0,13.4,1505.3,326.3,-0.7,1.8,2470.452,13.32,0.008,209.7
2021-01-30T06:10:03,42.805,6.029,-0.014,-0.036,-0.017,106.0,109.0,102.0,13.4,1505.3,324.2,-0.7,1.8,2470.45,13.32,0.038,201.2
2021-01-30T06:13:03,42.805,6.029,-0.006,-0.027,0.007,108.0,108.0,104.0,13.4,1505.3,325.9,-0.7,1.8,2470.446,13.32,0.027,192.5
2021-01-30T06:16:03,42.805,6.029,0.004,-0.018,0.021,107.0,108.0,103.0,13.3,1505.3,326.3,-0.7,1.8,2470.45,13.33,0.018,167.5
2021-01-30T06:19:03,42.805,6.029,0.003,-0.017,-0.01,106.0,108.0,103.0,13.4,1505.3,327.1,-0.7,1.8,2470.446,13.33,0.017,170.0
2021-01-30T06:22:03,42.805,6.029,-0.024,0.0,0.01,108.0,108.0,103.0,13.4,1505.3,323.2,-0.7,1.9,2470.451,13.33,0.024,270.0
2021-01-30T06:25:03,42.805,6.029,0.009,-0.015,0.011,108.0,108.0,103.0,13.4,1505.3,323.8,-0.7,1.8,2470.426,13.33,0.017,149.0
2021-01-30T06:28:03,42.805,6.029,-0.01,-0.018,0.022,107.0,109.0,103.0,13.4,1505.3,324.6,-0.7,1.8,2470.459,13.33,0.02,209.1
2021-01-30T06:31:03,42.805,6.029,-0.008,-0.013,-0.012,107.0,108.0,104.0,13.4,1505.3,327.4,-0.7,1.8,2470.47,13.33,0.015,211.6
2021-01-30T06:34:03,42.805,6.029,0.005,-0.023,0.014,106.0,108.0,103.0,13.4,1505.3,326.4,-0.7,1.8,2470.47,13.33,0.023,167.7
2021-01-30T06:37:03,42.805,6.029,0.001,-0.009,0.014,107.0,108.0,103.0,13.4,1505.3,327.2,-0.7,1.8,2470.492,13.33,0.009,173.7
2021-01-30T06:40:03,42.805,6.029,-0.015,-0.019,0.007,106.0,108.0,103.0,13.4,1505.3,324.7,-0.7,1.8,2470.472,13.33,0.024,218.3
2021-01-30T06:43:03,42.805,6.029,0.021,-0.005,0.0,107.0,108.0,103.0,13.3,1505.3,325.6,-0.7,1.8,2470.457,13.33,0.021,103.4
2021-01-30T06:46:03,42.805,6.029,0.007,-0.031,-0.016,108.0,110.0,105.0,13.4,1505.3,323.8,-0.7,1.8,2470.453,13.33,0.031,167.3
2021-01-30T06:49:03,42.805,6.029,0.011,-0.026,-0.019,107.0,109.0,103.0,13.4,1505.3,326.4,-0.7,1.8,2470.44,13.33,0.028,157.1
2021-01-30T06:52:03,42.805,6.029,0.007,-0.021,0.031,108.0,109.0,105.0,13.4,1505.3,326.8,-0.6,1.8,2470.445,13.33,0.022,161.6
2021-01-30T06:55:03,42.805,6.029,0.009,-0.024,-0.009,108.0,109.0,104.0,13.4,1505.3,322.8,-0.7,1.8,2470.484,13.33,0.025,159.4
2021-01-30T06:58:03,42.805,6.029,-0.019,-0.017,-0.01,108.0,109.0,104.0,13.4,1505.3,325.5,-0.7,1.9,2470.441,13.33,0.025,228.2
2021-01-30T07:04:03,42.805,6.029,-0.003,-0.013,-0.002,108.0,109.0,104.0,13.4,1505.3,324.4,-0.7,1.8,2470.525,13.31,0.013,193.0
2021-01-30T07:07:03,42.805,6.029,-0.015,-0.027,-0.023,108.0,108.0,104.0,13.4,1505.3,324.2,-0.7,1.8,2470.532,13.32,0.03,209.1
2021-01-30T07:10:03,42.805,6.029,-0.015,-0.017,-0.024,108.0,109.0,105.0,13.3,1505.3,327.7,-0.7,1.9,2470.494,13.32,0.022,221.4
2021-01-30T07:13:03,42.805,6.029,-0.024,-0.049,0.0,107.0,109.0,103.0,13.4,1505.3,323.4,-0.7,1.9,2470.495,13.32,0.054,206.1
2021-01-30T07:16:03,42.805,6.029,-0.004,0.0,-0.002,108.0,108.0,104.0,13.3,1505.3,326.7,-0.7,1.8,2470.522,13.32,0.004,270.0
2021-01-30T07:19:03,42.805,6.029,-0.013,-0.02,-0.018,108.0,107.0,103.0,13.4,1505.3,323.4,-0.7,1.8,2470.495,13.33,0.023,213.0
2021-01-30T07:22:03,42.805,6.029,0.0,-0.007,0.003,107.0,109.0,104.0,13.4,1505.3,324.9,-0.8,1.8,2470.515,13.33,0.007,180.0
2021-01-30T07:25:03,42.805,6.029,-0.033,-0.016,-0.004,105.0,109.0,104.0,13.4,1505.3,325.7,-0.7,1.8,2470.497,13.33,0.036,244.1
2021-01-30T07:28:03,42.805,6.029,-0.001,-0.03,-0.006,107.0,108.0,104.0,13.4,1505.3,327.3,-0.7,1.8,2470.518,13.33,0.03,181.9
2021-01-30T07:31:03,42.805,6.029,0.0,-0.013,-0.034,107.0,110.0,103.0,13.4,1505.3,326.4,-0.7,1.8,2470.501,13.33,0.013,180.0
2021-01-30T07:34:03,42.805,6.029,-0.016,-0.038,0.008,107.0,110.0,104.0,13.4,1505.3,323.9,-0.7,1.8,2470.518,13.33,0.041,202.8
2021-01-30T07:37:03,42.805,6.029,-0.008,-0.017,-0.002,108.0,110.0,103.0,13.4,1505.3,323.1,-0.7,1.9,2470.534,13.33,0.018,205.2
2021-01-30T07:40:03,42.805,6.029,-0.019,-0.017,-0.005,109.0,109.0,104.0,13.4,1505.3,323.4,-0.7,1.8,2470.531,13.33,0.025,228.2
2021-01-30T07:43:03,42.805,6.029,-0.006,-0.02,0.022,109.0,108.0,104.0,13.4,1505.3,325.2,-0.7,1.8,2470.496,13.33,0.02,196.7
2021-01-30T07:46:03,42.805,6.029,0.021,-0.015,0.02,107.0,109.0,105.0,13.4,1505.3,326.0,-0.7,1.8,2470.512,13.33,0.025,125.5
2021-01-30T07:49:03,42.805,6.029,0.005,-0.037,-0.005,108.0,109.0,104.0,13.3,1505.3,324.7,-0.7,1.8,2470.546,13.33,0.037,172.3
2021-01-30T07:52:03,42.805,6.029,-0.013,-0.022,0.031,107.0,109.0,105.0,13.4,1505.3,327.3,-0.7,1.8,2470.505,13.33,0.025,210.6
2021-01-30T07:55:03,42.805,6.029,-0.002,-0.032,-0.002,109.0,109.0,104.0,13.3,1505.3,325.9,-0.7,1.8,2470.471,13.33,0.032,183.6
2021-01-30T07:58:03,42.805,6.029,-0.006,-0.028,-0.026,109.0,110.0,106.0,13.4,1505.3,322.9,-0.7,1.8,2470.54,13.33,0.028,192.1
2021-01-30T08:04:03,42.805,6.029,0.003,-0.008,-0.014,108.0,109.0,106.0,13.4,1505.3,324.0,-0.7,1.8,2470.539,13.31,0.008,159.4
2021-01-30T08:07:03,42.805,6.029,-0.001,-0.022,0.019,108.0,110.0,106.0,13.4,1505.3,326.8,-0.7,1.8,2470.542,13.32,0.022,182.6
2021-01-30T08:10:03,42.805,6.029,-0.004,-0.026,-0.015,109.0,110.0,105.0,13.4,1505.3,325.1,-0.7,1.8,2470.56,13.32,0.026,188.7
2021-01-30T08:13:03,42.805,6.029,0.022,-0.017,-0.01,107.0,110.0,104.0,13.4,1505.3,326.1,-0.7,1.8,2470.513,13.32,0.027,127.7
2021-01-30T08:16:03,42.805,6.029,-0.003,-0.018,-0.02,108.0,109.0,104.0,13.4,1505.3,324.1,-0.7,1.8,2470.553,13.33,0.018,189.5
2021-01-30T08:19:03,42.805,6.029,-0.02,0.002,0.031,109.0,109.0,105.0,13.4,1505.3,326.2,-0.7,1.8,2470.569,13.33,0.02,275.7
2021-01-30T08:22:03,42.805,6.029,-0.017,-0.021,-0.011,108.0,110.0,104.0,13.4,1505.3,328.0,-0.7,1.8,2470.546,13.33,0.027,219.0
2021-01-30T08:25:03,42.805,6.029,-0.032,-0.042,-0.004,109.0,109.0,105.0,13.4,1505.3,323.1,-0.7,1.8,2470.494,13.33,0.052,217.3
2021-01-30T08:28:03,42.805,6.029,-0.012,-0.022,-0.002,108.0,109.0,105.0,13.4,1505.3,326.8,-0.7,1.8,2470.552,13.33,0.025,208.6
2021-01-30T08:31:03,42.805,6.029,-0.015,-0.041,-0.011,108.0,108.0,105.0,13.4,1505.3,325.0,-0.7,1.8,2470.57,13.33,0.043,200.1
2021-01-30T08:34:03,42.805,6.029,0.0,-0.038,0.012,109.0,109.0,104.0,13.4,1505.3,324.1,-0.7,1.8,2470.518,13.33,0.038,180.0
2021-01-30T08:37:03,42.805,6.029,-0.027,-0.041,-0.024,109.0,109.0,104.0,13.4,1505.3,326.7,-0.7,1.8,2470.535,13.33,0.049,213.4
2021-01-30T08:40:03,42.805,6.029,-0.03,-0.017,-0.016,107.0,109.0,105.0,13.4,1505.3,327.5,-0.7,1.8,2470.517,13.33,0.034,240.5
2021-01-30T08:43:03,42.805,6.029,-0.025,-0.012,-0.008,109.0,110.0,104.0,13.4,1505.3,328.1,-0.7,1.8,2470.559,13.33,0.027,244.4
2021-01-30T08:46:03,42.805,6.029,-0.012,-0.029,-0.001,110.0,108.0,104.0,13.3,1505.3,323.3,-0.7,1.8,2470.489,13.33,0.031,202.5
2021-01-30T08:49:03,42.805,6.029,-0.005,-0.048,-0.004,107.0,109.0,104.0,13.4,1505.3,323.7,-0.7,1.8,2470.544,13.33,0.048,185.9
2021-01-30T08:52:03,42.805,6.029,-0.023,-0.015,-0.019,108.0,109.0,104.0,13.4,1505.3,323.8,-0.7,1.8,2470.525,13.33,0.027,236.9
2021-01-30T08:55:03,42.805,6.029,0.006,-0.012,-0.015,108.0,110.0,104.0,13.3,1505.3,325.8,-0.7,1.8,2470.525,13.33,0.013,153.4
2021-01-30T08:58:03,42.805,6.029,-0.002,-0.027,-0.014,107.0,109.0,103.0,13.4,1505.3,325.9,-0.7,1.8,2470.513,13.33,0.027,184.2
2021-01-30T09:04:03,42.805,6.029,-0.06,-0.034,-0.031,108.0,109.0,104.0,13.4,1505.3,326.3,-0.7,1.8,2470.564,13.31,0.068,240.5
2021-01-30T09:07:03,42.805,6.029,-0.022,-0.015,0.005,108.0,109.0,104.0,13.4,1505.3,323.8,-0.7,1.9,2470.583,13.32,0.026,235.7
2021-01-30T09:10:03,42.805,6.029,-0.008,-0.025,0.003,108.0,111.0,102.0,13.4,1505.3,326.1,-0.7,1.8,2470.552,13.32,0.026,197.7
2021-01-30T09:13:03,42.805,6.029,-0.026,-0.02,-0.031,107.0,109.0,103.0,13.4,1505.3,325.7,-0.7,1.8,2470.582,13.33,0.032,232.4
2021-01-30T09:16:03,42.805,6.029,-0.021,-0.008,0.001,107.0,109.0,104.0,13.3,1505.3,326.3,-0.7,1.8,2470.521,13.33,0.022,249.1
2021-01-30T09:19:03,42.805,6.029,-0.035,-0.035,-0.01,107.0,110.0,104.0,13.3,1505.3,326.8,-0.7,1.8,2470.53,13.33,0.049,225.0
2021-01-30T09:22:03,42.805,6.029,-0.017,0.004,0.006,108.0,109.0,103.0,13.3,1505.3,326.0,-0.7,1.8,2470.555,13.33,0.017,283.2
2021-01-30T09:25:03,42.805,6.029,-0.034,-0.016,-0.011,107.0,109.0,104.0,13.4,1505.3,327.5,-0.7,1.8,2470.543,13.33,0.037,244.8
2021-01-30T09:28:03,42.805,6.029,0.001,-0.033,-0.014,108.0,108.0,105.0,13.4,1505.3,323.7,-0.7,1.8,2470.542,13.33,0.033,178.3
2021-01-30T09:31:03,42.805,6.029,-0.001,-0.022,0.02,108.0,109.0,106.0,13.4,1505.3,323.2,-0.7,1.8,2470.558,13.33,0.022,182.6
2021-01-30T09:34:03,42.805,6.029,-0.019,0.0,-0.004,109.0,109.0,105.0,13.3,1505.3,323.2,-0.7,1.8,2470.487,13.33,0.019,270.0
2021-01-30T09:37:03,42.805,6.029,-0.019,-0.03,0.011,108.0,110.0,103.0,13.4,1505.3,322.8,-0.7,1.8,2470.514,13.33,0.035,212.3
2021-01-30T09:40:03,42.805,6.029,-0.04,-0.021,-0.003,108.0,110.0,105.0,13.3,1505.3,323.2,-0.7,1.8,2470.51,13.33,0.045,242.3
2021-01-30T09:43:03,42.805,6.029,-0.012,-0.009,0.003,109.0,109.0,104.0,13.4,1505.3,325.3,-0.7,1.8,2470.509,13.33,0.015,233.1
2021-01-30T09:46:03,42.805,6.029,-0.033,-0.029,-0.031,108.0,110.0,103.0,13.4,1505.3,323.3,-0.7,1.8,2470.566,13.33,0.043,228.7
2021-01-30T09:49:03,42.805,6.029,-0.027,-0.03,0.0,108.0,111.0,106.0,13.3,1505.3,326.5,-0.7,1.9,2470.503,13.33,0.04,222.0
2021-01-30T09:52:03,42.805,6.029,0.002,-0.027,-0.006,107.0,109.0,104.0,13.3,1505.3,325.7,-0.7,1.8,2470.521,13.33,0.027,175.8
2021-01-30T09:55:03,42.805,6.029,-0.02,-0.039,-0.025,109.0,109.0,105.0,13.3,1505.3,326.5,-0.7,1.8,2470.513,13.33,0.043,207.1